Nantucket, MA

6:33 PM EDT on August 30, 2016 (GMT -0400)
Nantucket Memorial

Weather History for KACK - March, 2013

Change the Weather History Date:

Saturday, March 23, 2013

  Actual Average Record
Temperature  
Mean Temperature 38 °F -  
Max Temperature 45 °F 45 °F 66 °F (2012)
Min Temperature 33 °F 31 °F 19 °F (1959)
Degree Days  
Heating Degree Days 26    
Moisture  
Dew Point 21 °F    
Average Humidity 51    
Maximum Humidity 66    
Minimum Humidity 37    
Precipitation  
Precipitation 0.00 in - - ()
Sea Level Pressure  
Sea Level Pressure 29.72 in    
Wind  
Wind Speed 19 mph (WNW)    
Max Wind Speed 26 mph    
Max Gust Speed 45 mph    
Visibility 10 miles    
Events      
Averages and records for this station are not official NWS values.
T = Trace of Precipitation, MM = Missing Value Source: NWS Daily Summary

Daily Weather History Graph

Daily Weather History Graph

Search for Another Location

Airport or City:

Trip Planner

Search our weather history database for the weather conditions in past years. The results will help you decide how hot, cold, wet, or windy it might be!

Date:

Astronomy

Mar. 23, 2013 Rise Set
Actual Time 6:38 AM EDT 6:55 PM EDT
Civil Twilight 6:10 AM EDT 7:23 PM EDT
Nautical Twilight 5:38 AM EDT 7:55 PM EDT
Astronomical Twilight 5:05 AM EDT 8:29 PM EDT
Moon 3:17 PM EDT (3/23) 4:14 AM EDT (3/23)
Length of Visible Light 13h 12m
Length of Day
12h 17m
Waxing Gibbous, 85% of the Moon is Illuminated
Mar 23
Waxing Gibbous
Mar 27
Full
Apr 3
Last Quarter
Apr 10
New
Apr 18
First Quarter

Hourly Weather History & Observations

Time (EDT) Temp. Windchill Dew Point Humidity Pressure Visibility Wind Dir Wind Speed Gust Speed Precip Events Conditions
12:53 AM 36.0 °F 25.3 °F 21.9 °F 57% 29.74 in 10.0 mi WNW 19.6 mph 26.5 mph N/A   Mostly Cloudy
1:53 AM 34.0 °F 23.0 °F 21.0 °F 59% 29.75 in 10.0 mi WNW 18.4 mph 27.6 mph N/A   Clear
3:53 AM 33.1 °F 22.6 °F 19.9 °F 59% 29.75 in 10.0 mi West 16.1 mph 24.2 mph N/A   Clear
4:53 AM 33.1 °F 24.4 °F 21.0 °F 61% 29.74 in 10.0 mi WNW 11.5 mph 20.7 mph N/A   Partly Cloudy
5:53 AM 33.1 °F 23.4 °F 21.9 °F 64% 29.75 in 10.0 mi West 13.8 mph 23.0 mph N/A   Clear
6:53 AM 33.1 °F 23.4 °F 23.0 °F 66% 29.75 in 10.0 mi West 13.8 mph - N/A   Clear
7:53 AM 36.0 °F 24.4 °F 23.0 °F 59% 29.75 in 10.0 mi West 23.0 mph 28.8 mph N/A   Clear
8:53 AM 37.9 °F 26.8 °F 23.0 °F 55% 29.74 in 10.0 mi West 24.2 mph - N/A   Clear
9:53 AM 39.0 °F 28.8 °F 24.1 °F 55% 29.72 in 10.0 mi West 21.9 mph 34.5 mph N/A   Partly Cloudy
10:53 AM 39.9 °F 30.5 °F 24.1 °F 53% 29.71 in 10.0 mi West 19.6 mph 32.2 mph N/A   Scattered Clouds
11:53 AM 41.0 °F 31.6 °F 23.0 °F 49% 29.70 in 10.0 mi West 20.7 mph 32.2 mph N/A   Mostly Cloudy
12:53 PM 43.0 °F 33.5 °F 23.0 °F 45% 29.69 in 10.0 mi West 24.2 mph 34.5 mph N/A   Overcast
1:53 PM 43.0 °F 33.3 °F 21.9 °F 43% 29.67 in 10.0 mi West 25.3 mph 40.3 mph N/A   Overcast
2:53 PM 44.1 °F 34.6 °F 21.0 °F 40% 29.66 in 10.0 mi West 26.5 mph 44.9 mph N/A   Clear
3:53 PM 44.1 °F 35.7 °F 19.0 °F 37% 29.66 in 10.0 mi WNW 20.7 mph 29.9 mph N/A   Partly Cloudy
4:53 PM 44.1 °F 36.5 °F 19.0 °F 37% 29.66 in 10.0 mi WNW 17.3 mph 29.9 mph N/A   Clear
5:53 PM 43.0 °F 34.8 °F 18.0 °F 37% 29.68 in 10.0 mi WNW 18.4 mph 27.6 mph N/A   Clear
6:53 PM 41.0 °F 32.2 °F 19.9 °F 43% 29.70 in 10.0 mi WNW 18.4 mph 25.3 mph N/A   Clear
7:53 PM 39.9 °F 31.8 °F 19.9 °F 45% 29.73 in 10.0 mi WNW 15.0 mph 23.0 mph N/A   Scattered Clouds
8:53 PM 39.9 °F 31.1 °F 21.0 °F 47% 29.76 in 10.0 mi WNW 17.3 mph 25.3 mph N/A   Partly Cloudy
9:53 PM 39.0 °F 30.3 °F 21.0 °F 49% 29.77 in 10.0 mi West 16.1 mph - N/A   Overcast
10:53 PM 37.9 °F 29.2 °F 21.0 °F 51% 29.78 in 10.0 mi WNW 15.0 mph - N/A   Scattered Clouds
11:53 PM 37.0 °F 28.9 °F 21.9 °F 54% 29.78 in 10.0 mi West 12.7 mph - N/A   Clear